Date String (YYYY-MM-DD hh:mm:ss) UTC,Instrument flags,absolute air pressure of the measurement (hPa),sample flow rate (lpm),inlet stack bypass flow (lpm),air temperature of the measurement (°C),ambient temperature measured by the external sensor (°C),aerosol sample conditioner tube jacket temperature (°C),OPC LED temperature (°C),internal box temperature (°C),relative humidity of the measurement (%),span deviation,mass concentration of particles derived from Lorenz-Mie calculation of OPC scattering (μg/m³),mass concentration of particles derived from Lorenz-Mie calculation of OPC scattering (μg/m³),mass concentration of particles derived from Lorenz-Mie calculation of OPC scattering (μg/m³)
DateTimeUTC,F1_M11,P_M11,Q1_M11,Q2_M11,T1_M11,T2_M11,T3_M11,T4_M11,T5_M11,U1_M11,ZSPAN_M11,X2_M11,X0_M11,X1_M11
2024-05-16 15:00:00,SystemResetWarning,0827.8,5.00,000.00,025.6,025.0,000.0,033.8,027.4,026.3,0000.0,0003.08,0009.27,0002.32
2024-05-16 15:01:00,SystemResetWarning,0827.7,5.01,000.00,025.6,025.0,000.0,033.8,027.5,026.3,0000.0,0003.02,0008.04,0002.32
2024-05-16 15:02:00,SystemResetWarning,0827.7,5.01,000.00,025.7,025.0,000.0,033.8,027.5,026.4,0000.0,0002.93,0007.82,0002.32
2024-05-16 15:03:00,SystemResetWarning,0827.7,5.00,000.00,025.7,025.0,000.0,033.8,027.5,026.8,0000.0,0002.96,0007.84,0002.33
2024-05-16 15:04:00,SystemResetWarning,0827.8,5.00,000.00,025.7,025.0,000.0,033.9,027.5,026.2,0000.0,0002.94,0007.81,0002.34
2024-05-16 15:05:00,SystemResetWarning,0827.8,5.00,000.00,025.7,025.0,000.0,033.9,027.5,026.6,0000.0,0002.89,0007.70,0002.35
2024-05-16 15:06:00,SystemResetWarning,0827.7,5.00,000.00,025.7,025.0,000.0,033.9,027.5,026.4,0000.0,0002.82,0007.57,0002.36
2024-05-16 15:07:00,SystemResetWarning,0827.7,4.98,000.00,025.6,024.1,000.0,034.0,027.0,027.3,0000.0,0002.81,0008.05,0002.36
2024-05-16 15:08:00,SystemResetWarning,0827.7,5.00,000.00,025.2,022.3,000.0,034.0,026.0,027.3,0000.0,0002.89,0007.89,0002.36
2024-05-16 15:09:00,SystemResetWarning,0827.7,5.01,000.00,024.9,022.1,000.0,033.9,025.8,026.9,0000.0,0002.91,0008.29,0002.36
2024-05-16 15:10:00,SystemResetWarning,0827.8,5.01,000.00,024.8,022.4,000.0,033.8,025.9,027.4,0000.0,0002.89,0008.57,0002.37
2024-05-16 15:11:00,SystemResetWarning,0827.8,5.00,000.00,024.8,022.7,000.0,033.6,026.1,026.6,0000.0,0002.88,0008.59,0002.35
2024-05-16 15:12:00,SystemResetWarning,0827.8,5.00,000.00,024.8,023.0,000.0,033.5,026.3,027.0,0000.0,0002.88,0008.33,0002.33
2024-05-16 15:13:00,SystemResetWarning,0827.8,5.00,000.00,024.8,023.3,000.0,033.5,026.3,027.0,0000.0,0002.92,0008.43,0002.33
2024-05-16 15:14:00,SystemResetWarning,0827.7,4.99,000.00,024.9,023.5,000.0,033.4,026.5,027.2,0000.0,0002.91,0008.50,0002.31
2024-05-16 15:15:00,SystemResetWarning,0827.8,4.99,000.00,024.9,023.7,000.0,033.4,026.6,027.1,0000.0,0002.93,0008.55,0002.30
2024-05-16 15:16:00,SystemResetWarning,0827.7,5.00,000.00,024.9,023.9,000.0,033.4,026.6,026.5,0000.0,0002.96,0008.86,0002.28
2024-05-16 15:17:00,SystemResetWarning,0827.8,5.00,000.00,024.9,024.0,000.0,033.4,026.7,026.8,0000.0,0003.02,0009.95,0002.27
2024-05-16 15:18:00,SystemResetWarning,0827.8,5.00,000.00,025.0,024.1,000.0,033.4,026.7,026.7,0000.0,0003.05,0009.41,0002.27
2024-05-16 15:19:00,SystemResetWarning,0827.8,5.00,000.00,025.0,024.2,000.0,033.3,026.8,027.7,0000.0,0002.98,0008.82,0002.27
2024-05-16 15:20:00,SystemResetWarning,0827.7,5.00,000.00,025.1,024.3,000.0,033.3,026.8,027.0,0000.0,0002.91,0008.26,0002.25
2024-05-16 15:21:00,SystemResetWarning,0827.8,5.00,000.00,025.1,024.4,000.0,033.3,026.9,025.7,0000.0,0002.88,0007.59,0002.24
2024-05-16 15:22:00,SystemResetWarning,0827.8,5.00,000.00,025.1,024.5,000.0,033.4,026.9,025.6,0000.0,0002.88,0007.58,0002.23
2024-05-16 15:23:00,SystemResetWarning,0827.7,4.99,000.00,025.2,024.5,000.0,033.4,026.9,025.7,0000.0,0002.86,0007.68,0002.22
2024-05-16 15:24:00,SystemResetWarning,0827.8,5.00,000.00,025.2,024.6,000.0,033.4,027.0,026.3,0000.0,0002.83,0008.04,0002.22
2024-05-16 15:25:00,SystemResetWarning,0827.8,5.00,000.00,025.2,024.6,000.0,033.4,027.1,026.6,0000.0,0002.80,0007.89,0002.21
2024-05-16 15:26:00,SystemResetWarning,0827.8,5.00,000.00,025.3,024.7,000.0,033.4,027.1,026.6,0000.0,0002.77,0007.84,0002.21
2024-05-16 15:27:00,SystemResetWarning,0827.7,5.00,000.00,025.3,024.7,000.0,033.4,027.1,026.2,0000.0,0002.77,0007.79,0002.20
2024-05-16 15:28:00,SystemResetWarning,0827.7,4.99,000.00,025.3,024.3,000.0,033.5,026.8,026.5,0000.0,0002.73,0006.00,0002.19
2024-05-16 15:29:00,SystemResetWarning,0827.7,4.99,000.00,025.0,022.4,000.0,033.6,025.9,027.3,0000.0,0002.74,0006.03,0002.17
2024-05-16 15:30:00,SystemResetWarning,0827.7,5.00,000.00,024.6,021.6,000.0,033.5,025.4,028.3,0000.0,0002.76,0007.16,0002.16
2024-05-16 15:31:00,SystemResetWarning,0827.7,5.01,000.00,024.5,022.0,000.0,033.4,025.5,028.9,0000.0,0002.80,0007.06,0002.15
2024-05-16 15:32:00,SystemResetWarning,0827.7,5.01,000.00,024.5,022.3,000.0,033.3,025.6,029.1,0000.0,0002.87,0007.37,0002.14
2024-05-16 15:33:00,SystemResetWarning,0827.7,4.99,000.00,024.5,022.7,000.0,033.2,025.9,028.8,0000.0,0002.94,0007.65,0002.14
2024-05-16 15:34:00,SystemResetWarning,0827.7,5.00,000.00,024.5,023.0,000.0,033.1,026.1,028.4,0000.0,0002.95,0007.74,0002.14
2024-05-16 15:35:00,SystemResetWarning,0827.7,5.00,000.00,024.5,023.2,000.0,033.1,026.2,028.7,0000.0,0002.91,0007.36,0002.13
2024-05-16 15:36:00,SystemResetWarning,0827.7,5.01,000.00,024.6,023.5,000.0,033.0,026.3,028.8,0000.0,0002.91,0007.44,0002.13
2024-05-16 15:37:00,SystemResetWarning,0827.6,5.00,000.00,024.6,023.6,000.0,033.0,026.4,027.2,0000.0,0002.87,0007.43,0002.11
2024-05-16 15:38:00,SystemResetWarning,0827.6,5.00,000.00,024.7,023.8,000.0,033.0,026.4,027.3,0000.0,0002.83,0007.39,0002.09
2024-05-16 15:39:00,SystemResetWarning,0827.5,5.00,000.00,024.7,023.9,000.0,033.0,026.5,027.1,0000.0,0002.78,0007.35,0002.08
2024-05-16 15:40:00,SystemResetWarning,0827.5,5.00,000.00,024.7,024.0,000.0,033.0,026.6,026.7,0000.0,0002.73,0007.48,0002.07
2024-05-16 15:41:00,SystemResetWarning,0827.5,4.99,000.00,024.8,024.1,000.0,033.0,026.6,027.0,0000.0,0002.71,0006.93,0002.05
2024-05-16 15:42:00,SystemResetWarning,0827.8,5.00,000.00,024.8,024.2,000.0,033.0,026.7,028.1,0000.0,0002.68,0006.41,0002.04
2024-05-16 15:43:00,SystemResetWarning,0827.9,4.99,000.00,024.9,024.3,000.0,033.0,026.7,028.2,0000.0,0002.59,0006.10,0002.02
2024-05-16 15:44:00,SystemResetWarning,0827.7,5.00,000.00,024.9,024.4,000.0,033.1,026.8,028.3,0000.0,0002.51,0005.60,0002.02
2024-05-16 15:45:00,SystemResetWarning,0827.5,5.00,000.00,025.0,024.4,000.0,033.1,026.8,028.2,0000.0,0002.48,0005.43,0002.01
2024-05-16 15:46:00,SystemResetWarning,0827.4,5.01,000.00,025.0,024.5,000.0,033.1,026.8,028.5,0000.0,0002.53,0005.18,0002.03
2024-05-16 15:47:00,SystemResetWarning,0827.4,5.00,000.00,025.1,024.5,000.0,033.2,026.9,028.7,0000.0,0002.56,0005.73,0002.03
2024-05-16 15:48:00,SystemResetWarning,0827.4,5.00,000.00,025.1,024.4,000.0,033.2,026.8,028.0,0000.0,0002.56,0005.74,0002.04
2024-05-16 15:49:00,SystemResetWarning,0827.4,4.99,000.00,024.9,022.7,000.0,033.3,025.9,028.4,0000.0,0002.61,0007.24,0002.07
2024-05-16 15:50:00,SystemResetWarning,0827.4,5.01,000.00,024.5,021.4,000.0,033.3,025.2,029.3,0000.0,0002.74,0007.62,0002.11
2024-05-16 15:51:00,SystemResetWarning,0827.4,5.01,000.00,024.3,021.7,000.0,033.2,025.2,029.6,0000.0,0002.83,0008.09,0002.14
2024-05-16 15:52:00,SystemResetWarning,0827.4,5.00,000.00,024.2,022.0,000.0,033.1,025.4,029.8,0000.0,0002.82,0007.89,0002.16
2024-05-16 15:53:00,SystemResetWarning,0827.4,5.00,000.00,024.2,022.4,000.0,032.9,025.6,029.9,0000.0,0002.83,0007.84,0002.18
2024-05-16 15:54:00,SystemResetWarning,0827.4,5.00,000.00,024.3,022.7,000.0,032.9,025.8,030.4,0000.0,0002.84,0007.84,0002.21
2024-05-16 15:55:00,SystemResetWarning,0827.3,5.00,000.00,024.3,023.0,000.0,032.8,025.9,029.4,0000.0,0002.90,0008.12,0002.24
2024-05-16 15:56:00,SystemResetWarning,0827.4,4.99,000.00,024.4,023.2,000.0,032.8,026.0,029.9,0000.0,0002.93,0008.82,0002.26
2024-05-16 15:57:00,SystemResetWarning,0827.3,5.00,000.00,024.4,023.4,000.0,032.8,026.2,031.2,0000.0,0002.93,0008.82,0002.27
2024-05-16 15:58:00,SystemResetWarning,0827.4,5.00,000.00,024.5,023.6,000.0,032.8,026.3,029.7,0000.0,0002.89,0008.21,0002.26
2024-05-16 15:59:00,SystemResetWarning,0827.4,5.00,000.00,024.5,023.7,000.0,032.8,026.3,028.3,0000.0,0002.92,0008.14,0002.27
